This demonstration page uses our WeatherBlox Daily Observations layout. Learn more.

Left ArrowRight Arrow

Hourly Observations for August 24, 2015

Temp ( °F °C ) Dew Point ( °F °C ) Humidity (%) Winds ( mph kmh ) Pressure ( in mb ) Visibility ( mi km ) Precip ( " mm )
12:54 am 00:54 Clear 51 10.6 48 8.9 89 89 Calm 30.16 1021 10 16.0934 0 0
1:54 am 01:54 Clear 53 11.7 50 10 89 89 Calm 30.15 1021 10 16.0934 0 0
2:54 am 02:54 Clear 53 11.7 49 9.4 86 86 Calm 30.15 1021 10 16.0934 0 0
3:54 am 03:54 Clear 52 11.1 49 9.4 89 89 W 3 6 30.15 1021 10 16.0934 0 0
4:54 am 04:54 Clear 47 8.3 45 7.2 93 93 Calm 30.14 1021 10 16.0934 0 0
5:54 am 05:54 Clear 49 9.4 46 7.8 90 90 Calm 30.15 1021 10 16.0934 0 0
6:54 am 06:54 Sunny 48 8.9 46 7.8 93 93 S 3 6 30.16 1021 10 16.0934 0 0
7:54 am 07:54 Sunny 53 11.7 49 9.4 86 86 Calm 30.18 1022 10 16.0934 0 0
8:54 am 08:54 Sunny 61 16.1 52 11.1 72 72 W 5 7 30.19 1022 10 16.0934 0 0
9:54 am 09:54 Sunny 67 19.4 54 12.2 63 63 Calm 30.19 1023 10 16.0934 0 0
10:54 am 10:54 Sunny 72 22.2 50 10 46 46 WSW 3 6 30.18 1022 10 16.0934 0 0
11:54 am 11:54 Sunny 76 24.4 50 10 40 40 S 6 9 30.17 1022 10 16.0934 0 0
12:54 pm 12:54 Sunny 79 26.1 48 8.9 34 34 W 8 13 30.16 1021 10 16.0934 0 0
1:54 pm 13:54 Sunny 80 26.7 46 7.8 30 30 VRB 3 6 30.14 1021 10 16.0934 0 0
2:54 pm 14:54 Sunny 82 27.8 49 9.4 32 32 W 10 17 30.13 1020 10 16.0934 0 0
3:54 pm 15:54 Sunny 81 27.2 50 10 34 34 WSW 13 20 30.11 1020 10 16.0934 0 0
4:54 pm 16:54 Sunny 82 27.8 51 10.6 34 34 WNW 10 17 30.11 1020 10 16.0934 0 0
5:54 pm 17:54 Sunny 81 27.2 51 10.6 35 35 W 10 17 30.1 1019 10 16.0934 0 0
6:54 pm 18:54 Sunny 80 26.7 52 11.1 38 38 W 7 11 30.1 1019 10 16.0934 0 0
7:54 pm 19:54 Sunny 73 22.8 56 13.3 55 55 ENE 6 9 30.1 1019 10 16.0934 0 0
8:54 pm 20:54 Clear 70 21.1 55 12.8 59 59 ESE 3 6 30.1 1019 10 16.0934 0 0
9:54 pm 21:54 Clear 65 18.3 56 13.3 73 73 Calm 30.12 1020 10 16.0934 0 0
10:54 pm 22:54 Clear 64 17.8 56 13.3 75 75 Calm 30.12 1020 10 16.0934 0 0
11:54 pm 23:54 Clear 59 15 56 13.3 90 90 N 6 9 30.13 1020 10 16.0934 0 0

Powered by AerisWeather